Home   Weather   Managua   Past weeks
Flag for Nicaragua

Past Weather in Managua, Nicaragua — Yesterday and Last 2 Weeks

Now
95 °F

Scattered clouds.


Feels Like: 98 °F
Forecast: N/A
Wind: 18 mph from Southeast

Location: Managua A. C. Sandino

Current Time: Apr 5, 2020 at 2:40:37 pm

Latest Report: Apr 5, 2020 at 1:00 pm


Visibility: N/A

Pressure: 29.80 "Hg

Humidity: 39%

Dew Point: 66 °F

Location of ManaguaLocation

Past Weather in Managua — Graph

°F

Managua Temperature Yesterday

Maximum temperature yesterday: 95 °F (at 2:00 pm)
Minimum temperature yesterday: 73 °F (at 6:00 am)
Average temperature yesterday: 84 °F

High & Low Weather Summary for the Past Weeks

 TemperatureHumidityPressure
High95 °F (Mar 23, 1:00 pm)89% (Mar 24, 4:00 am)30.01 "Hg (Mar 24, 4:00 am)
Low72 °F (Mar 31, 6:00 am)32% (Mar 23, 1:00 pm)29.65 "Hg (Apr 4, 4:00 pm)
Average85 °F60%29.84 "Hg
* Reported Mar 21 1:00 pm — Apr 5 1:00 pm, Managua. Weather by CustomWeather, © 2020

Note: Actual official high and low records may vary slightly from our data, if they occured in-between our weather recording intervals... More about our weather records

Managua Weather History for the Previous 24 Hours

Scroll right to see more
 ConditionsComfort  
Time TempWeatherWind HumidityBarometerVisibility
1:00 pm
Sun, Apr 5
95 °FScattered clouds.18 mph39%29.80 "HgN/A
12:00 pm95 °FPartly sunny.16 mph36%29.83 "HgN/A
11:00 am93 °FPartly sunny.16 mph39%29.83 "HgN/A
10:00 am90 °FScattered clouds.9 mph43%29.86 "HgN/A
9:00 am86 °FPartly sunny.12 mph52%29.86 "HgN/A
8:00 am82 °FScattered clouds.12 mph58%29.86 "HgN/A
7:00 am79 °FScattered clouds.5 mph70%29.86 "HgN/A
6:00 am73 °FScattered clouds.7 mph83%29.83 "HgN/A
5:00 am73 °FPassing clouds.7 mph83%29.83 "HgN/A
4:00 am73 °FPassing clouds.7 mph89%29.80 "HgN/A
2:00 am75 °FPassing clouds.5 mph89%29.80 "HgN/A
10:00 pm
Sat, Apr 4
81 °FPassing clouds.5 mph66%29.80 "HgN/A
9:00 pm81 °FPassing clouds.5 mph70%29.80 "HgN/A
8:00 pm84 °FPassing clouds.5 mph55%29.80 "HgN/A
7:00 pm86 °FPassing clouds.7 mph52%29.74 "HgN/A
6:00 pm90 °FPassing clouds.9 mph49%29.71 "HgN/A
5:00 pm93 °FSunny.14 mph47%29.68 "Hg10 mi
4:00 pm95 °FSunny.16 mph47%29.65 "Hg10 mi
3:00 pm95 °FSunny.16 mph39%29.68 "Hg10 mi
2:00 pm95 °FPassing clouds.12 mph44%29.71 "HgN/A
Weather by CustomWeather, © 2020

See weather overview

Advertising